User: anonymous
Location: NJAA Observatory
(40.6819°N, 74.8979°W)
Time: 05:48:48
(UTC-04:00)
Language:

CENTAUR R/B - Orbit

View from above orbital plane
View from above orbital plane
View from above satellite
View from above satellite

Ground track
Ground track

The orbit data is extracted from the following two-line orbital elements,

1 26906U 01040B   14270.09617857 0.00000030  00000-0  41764-4 0    07
2 26906  63.4675 359.7815 0268000 344.7726  15.2274 13.43916079    07
Epoch (UTC): 27 September 2014 02:18:29
Eccentricity: 0.0268000
inclination: 63.4675°
perigee height: 894 km
apogee height: 1295 km
right ascension of ascending node: 359.7815°
argument of perigee: 344.7726°
revolutions per day: 13.43916079
mean anomaly at epoch: 15.2274°
orbit number at epoch: 0

The dashed part of the orbit path shows where the satellite is in the earth's shadow,  

DLR